Date String (YYYY-MM-DD hh:mm:ss) UTC,Instrument flags,absolute air pressure of the measurement (hPa),sample flow rate (lpm),inlet stack bypass flow (lpm),air temperature of the measurement (°C),ambient temperature measured by the external sensor (°C),aerosol sample conditioner tube jacket temperature (°C),OPC LED temperature (°C),internal box temperature (°C),relative humidity of the measurement (%),span deviation,mass concentration of particles derived from Lorenz-Mie calculation of OPC scattering (μg/m³),mass concentration of particles derived from Lorenz-Mie calculation of OPC scattering (μg/m³),mass concentration of particles derived from Lorenz-Mie calculation of OPC scattering (μg/m³)
DateTimeUTC,F1_M11,P_M11,Q1_M11,Q2_M11,T1_M11,T2_M11,T3_M11,T4_M11,T5_M11,U1_M11,ZSPAN_M11,X0_M11,X2_M11,X1_M11
2024-05-15 09:00:00,SystemResetWarning,0827.4,5.00,000.00,025.5,024.9,000.0,033.6,027.3,024.8,0000.0,0006.75,0003.57,0003.05
2024-05-15 09:01:00,SystemResetWarning,0827.4,5.01,000.00,025.5,024.9,000.0,033.6,027.3,024.7,0000.0,0006.48,0003.52,0003.03
2024-05-15 09:02:00,SystemResetWarning,0827.4,5.01,000.00,025.5,024.9,000.0,033.6,027.3,024.7,0000.0,0005.78,0003.50,0003.01
2024-05-15 09:03:00,SystemResetWarning,0827.4,5.00,000.00,025.5,024.9,000.0,033.6,027.4,024.7,0000.0,0006.01,0003.47,0002.99
2024-05-15 09:04:00,SystemResetWarning,0827.4,4.99,000.00,025.5,024.9,000.0,033.7,027.4,024.6,0000.0,0006.55,0003.43,0002.97
2024-05-15 09:05:00,SystemResetWarning,0827.4,5.00,000.00,025.5,025.0,000.0,033.7,027.4,024.6,0000.0,0006.52,0003.41,0002.95
2024-05-15 09:06:00,SystemResetWarning,0827.3,4.99,000.00,025.6,025.0,000.0,033.7,027.4,024.6,0000.0,0006.30,0003.37,0002.94
2024-05-15 09:07:00,SystemResetWarning,0827.4,5.00,000.00,025.6,025.0,000.0,033.7,027.4,024.6,0000.0,0006.31,0003.36,0002.94
2024-05-15 09:08:00,SystemResetWarning,0827.4,5.01,000.00,025.6,025.0,000.0,033.7,027.4,024.5,0000.0,0006.45,0003.38,0002.93
2024-05-15 09:09:00,SystemResetWarning,0827.4,5.01,000.00,025.6,025.0,000.0,033.7,027.4,024.4,0000.0,0007.44,0003.40,0002.93
2024-05-15 09:10:00,SystemResetWarning,0827.4,5.02,000.00,025.6,025.0,000.0,033.8,027.4,024.4,0000.0,0007.83,0003.39,0002.92
2024-05-15 09:11:00,SystemResetWarning,0827.8,4.98,000.00,025.6,025.0,000.0,033.8,027.5,024.4,0000.0,0007.88,0003.40,0002.92
2024-05-15 09:12:00,SystemResetWarning,0827.6,5.00,000.00,025.7,025.0,000.0,033.8,027.5,024.4,0000.0,0007.97,0003.42,0002.92
2024-05-15 09:13:00,SystemResetWarning,0827.6,5.00,000.00,025.7,025.1,000.0,033.8,027.5,024.4,0000.0,0007.98,0003.42,0002.92
2024-05-15 09:14:00,SystemResetWarning,0827.6,5.00,000.00,025.7,025.1,000.0,033.8,027.5,024.5,0000.0,0007.76,0003.39,0002.91
2024-05-15 09:15:00,SystemResetWarning,0827.6,5.01,000.00,025.7,025.1,000.0,033.8,027.5,024.5,0000.0,0006.99,0003.38,0002.91
2024-05-15 09:16:00,SystemResetWarning,0827.5,5.00,000.00,025.7,025.1,000.0,033.9,027.5,024.5,0000.0,0007.71,0003.39,0002.91
2024-05-15 09:17:00,SystemResetWarning,0827.5,4.99,000.00,025.7,025.1,000.0,033.9,027.5,024.6,0000.0,0008.08,0003.40,0002.92
2024-05-15 09:18:00,SystemResetWarning,0827.6,5.00,000.00,025.7,025.1,000.0,033.9,027.5,024.6,0000.0,0008.17,0003.41,0002.90
2024-05-15 09:19:00,SystemResetWarning,0827.7,4.99,000.00,025.7,025.1,000.0,033.9,027.6,024.7,0000.0,0008.23,0003.41,0002.92
2024-05-15 09:20:00,SystemResetWarning,0827.7,5.01,000.00,025.7,025.1,000.0,033.9,027.6,024.6,0000.0,0007.97,0003.40,0002.92
2024-05-15 09:21:00,SystemResetWarning,0827.7,5.00,000.00,025.7,025.1,000.0,033.9,027.6,024.6,0000.0,0007.29,0003.39,0002.92
2024-05-15 09:22:00,SystemResetWarning,0827.7,5.00,000.00,025.8,025.1,000.0,033.9,027.6,024.8,0000.0,0007.31,0003.39,0002.92
2024-05-15 09:23:00,SystemResetWarning,0827.8,5.00,000.00,025.8,025.1,000.0,033.9,027.6,024.9,0000.0,0007.26,0003.38,0002.91
2024-05-15 09:24:00,SystemResetWarning,0827.8,5.00,000.00,025.8,025.1,000.0,033.9,027.6,025.1,0000.0,0007.29,0003.37,0002.92
2024-05-15 09:25:00,SystemResetWarning,0827.8,5.00,000.00,025.8,025.1,000.0,033.9,027.6,025.3,0000.0,0007.38,0003.41,0002.95
2024-05-15 09:26:00,SystemResetWarning,0827.7,5.00,000.00,025.8,025.1,000.0,034.0,027.6,025.5,0000.0,0007.67,0003.44,0002.97
2024-05-15 09:27:00,SystemResetWarning,0827.8,5.01,000.00,025.8,025.2,000.0,034.0,027.6,025.3,0000.0,0007.61,0003.45,0002.99
2024-05-15 09:28:00,SystemResetWarning,0827.8,5.01,000.00,025.8,025.2,000.0,034.0,027.6,025.5,0000.0,0006.55,0003.46,0002.99
2024-05-15 09:29:00,SystemResetWarning,0827.8,4.99,000.00,025.8,025.2,000.0,034.0,027.6,025.6,0000.0,0006.69,0003.49,0003.01
2024-05-15 09:30:00,SystemResetWarning,0827.8,5.00,000.00,025.8,025.2,000.0,034.0,027.6,025.8,0000.0,0006.52,0003.49,0003.01
2024-05-15 09:31:00,SystemResetWarning,0827.8,4.99,000.00,025.8,025.1,000.0,034.0,027.6,025.9,0000.0,0006.53,0003.50,0003.01
2024-05-15 09:32:00,SystemResetWarning,0827.8,4.99,000.00,025.8,025.1,000.0,034.0,027.6,025.8,0000.0,0006.62,0003.52,0003.02
2024-05-15 09:33:00,SystemResetWarning,0827.8,5.00,000.00,025.8,025.2,000.0,034.0,027.6,025.6,0000.0,0006.91,0003.59,0003.04
2024-05-15 09:34:00,SystemResetWarning,0827.8,5.00,000.00,025.8,025.2,000.0,034.0,027.6,025.6,0000.0,0006.93,0003.60,0003.05
2024-05-15 09:35:00,SystemResetWarning,0827.8,5.00,000.00,025.8,025.2,000.0,034.0,027.6,025.7,0000.0,0006.73,0003.59,0003.05
2024-05-15 09:36:00,SystemResetWarning,0827.8,5.00,000.00,025.8,025.2,000.0,034.0,027.6,025.9,0000.0,0007.22,0003.62,0003.06
2024-05-15 09:37:00,SystemResetWarning,0827.8,5.00,000.00,025.8,025.2,000.0,034.0,027.6,026.1,0000.0,0007.48,0003.60,0003.05
2024-05-15 09:38:00,SystemResetWarning,0827.7,5.00,000.00,025.8,025.2,000.0,034.0,027.6,026.1,0000.0,0007.26,0003.62,0003.05
2024-05-15 09:39:00,SystemResetWarning,0827.8,5.00,000.00,025.9,025.2,000.0,034.1,027.6,026.3,0000.0,0007.31,0003.64,0003.04
2024-05-15 09:40:00,SystemResetWarning,0827.7,5.00,000.00,025.9,025.2,000.0,034.1,027.6,026.1,0000.0,0007.26,0003.64,0003.04
2024-05-15 09:41:00,SystemResetWarning,0827.7,5.00,000.00,025.9,025.2,000.0,034.1,027.6,025.8,0000.0,0007.20,0003.63,0003.04
2024-05-15 09:42:00,SystemResetWarning,0827.5,5.00,000.00,025.9,025.2,000.0,034.1,027.6,026.1,0000.0,0007.18,0003.62,0003.04
2024-05-15 09:43:00,SystemResetWarning,0827.5,5.00,000.00,025.9,025.2,000.0,034.1,027.6,025.0,0000.0,0007.61,0003.58,0003.02
2024-05-15 09:44:00,SystemResetWarning,0827.6,5.00,000.00,025.9,025.2,000.0,034.1,027.6,024.3,0000.0,0007.42,0003.50,0002.96
2024-05-15 09:45:00,SystemResetWarning,0827.5,4.99,000.00,025.9,025.2,000.0,034.1,027.7,026.1,0000.0,0007.40,0003.46,0002.90
2024-05-15 09:46:00,SystemResetWarning,0827.8,5.00,000.00,025.9,025.2,000.0,034.1,027.6,027.2,0000.0,0007.48,0003.48,0002.90
2024-05-15 09:47:00,SystemResetWarning,0827.6,5.01,000.00,025.9,025.2,000.0,034.1,027.6,027.1,0000.0,0007.29,0003.48,0002.90
2024-05-15 09:48:00,SystemResetWarning,0827.4,5.01,000.00,025.9,025.2,000.0,034.1,027.7,027.0,0000.0,0007.02,0003.52,0002.91
2024-05-15 09:49:00,SystemResetWarning,0827.4,4.99,000.00,025.9,025.2,000.0,034.1,027.7,027.1,0000.0,0006.93,0003.51,0002.91
2024-05-15 09:50:00,SystemResetWarning,0827.3,4.99,000.00,025.9,025.2,000.0,034.1,027.7,027.2,0000.0,0007.54,0003.48,0002.93
2024-05-15 09:51:00,SystemResetWarning,0827.3,4.99,000.00,025.9,025.2,000.0,034.1,027.7,026.9,0000.0,0008.01,0003.49,0002.94
2024-05-15 09:52:00,SystemResetWarning,0827.3,5.00,000.00,025.9,025.2,000.0,034.1,027.7,026.9,0000.0,0008.03,0003.49,0002.92
2024-05-15 09:53:00,SystemResetWarning,0827.3,4.99,000.00,025.9,025.2,000.0,034.1,027.7,026.9,0000.0,0008.08,0003.49,0002.94
2024-05-15 09:54:00,SystemResetWarning,0827.2,5.00,000.00,025.9,025.2,000.0,034.2,027.7,027.1,0000.0,0007.67,0003.53,0002.96
2024-05-15 09:55:00,SystemResetWarning,0827.3,4.99,000.00,025.9,025.2,000.0,034.2,027.7,027.2,0000.0,0007.85,0003.59,0003.01
2024-05-15 09:56:00,SystemResetWarning,0827.3,5.00,000.00,025.9,025.2,000.0,034.2,027.7,026.9,0000.0,0007.88,0003.64,0003.09
2024-05-15 09:57:00,SystemResetWarning,0827.3,5.01,000.00,025.9,025.2,000.0,034.2,027.7,026.5,0000.0,0007.89,0003.66,0003.10
2024-05-15 09:58:00,SystemResetWarning,0827.4,5.01,000.00,025.9,025.2,000.0,034.2,027.7,026.4,0000.0,0007.79,0003.65,0003.10
2024-05-15 09:59:00,SystemResetWarning,0827.4,5.00,000.00,025.9,025.2,000.0,034.2,027.7,026.6,0000.0,0007.62,0003.61,0003.09
